Frankfort, KY

8:23 PM EDT on April 24, 2018 (GMT -0400)
Capital City

Weather History for KFFT - February, 2013

Change the Weather History Date:

Monday, February 11, 2013

  Actual Average Record
Temperature  
Mean Temperature 44 °F 36 °F  
Max Temperature 54 °F 45 °F 78 °F (1932)
Min Temperature 34 °F 26 °F 2 °F (1982)
Degree Days  
Heating Degree Days 21 30  
Month to date heating degree days 333 335  
Since 1 July heating degree days 3036 3173  
Cooling Degree Days 0 0  
Month to date cooling degree days 0 0  
Year to date cooling degree days 0 0  
Moisture  
Dew Point 38 °F    
Average Humidity 70    
Maximum Humidity 100    
Minimum Humidity 39    
Precipitation  
Precipitation 0.00 in 0.10 in 0.80 in (1921)
Month to date precipitation 0.36 1.20  
Year to date precipitation 5.36 4.46  
Sea Level Pressure  
Sea Level Pressure 29.93 in    
Wind  
Wind Speed 13 mph (SW)    
Max Wind Speed 26 mph    
Max Gust Speed 37 mph    
Visibility 10 miles    
Events      
T = Trace of Precipitation, MM = Missing Value Source: NWS Daily Summary

Daily Weather History Graph

Daily Weather History Graph

Search for Another Location

Airport or City:

Astronomy

Feb. 11, 2013 Rise Set
Actual Time 7:34 AM EST 6:14 PM EST
Civil Twilight 7:06 AM EST 6:41 PM EST
Nautical Twilight 6:35 AM EST 7:12 PM EST
Astronomical Twilight 6:05 AM EST 7:43 PM EST
Moon 8:00 AM EST (2/11) 8:07 PM EST (2/11)
Length of Visible Light 11h 34m
Length of Day
10h 39m
Waxing Crescent, 3% of the Moon is Illuminated
Feb 11
Waxing Crescent
Feb 17
First Quarter
Feb 25
Full
Mar 4
Last Quarter
Mar 11
New

Hourly Weather History & Observations

Time (EST) Temp. Windchill Dew Point Humidity Pressure Visibility Wind Dir Wind Speed Gust Speed Precip Events Conditions
12:20 AM 51.8 °F - 50.0 °F 94% 29.83 in 10.0 mi South 13.8 mph - N/A   Overcast
12:53 AM 52.0 °F - 51.1 °F 97% 29.84 in 10.0 mi SSW 10.4 mph 20.7 mph N/A   Overcast
1:53 AM 53.1 °F - 51.1 °F 93% 29.84 in 10.0 mi SSW 13.8 mph - N/A   Overcast
2:53 AM 54.0 °F - 52.0 °F 93% 29.84 in 10.0 mi SSW 13.8 mph - N/A   Overcast
3:14 AM 53.6 °F - 51.8 °F 94% 29.84 in 10.0 mi SW 11.5 mph - N/A   Overcast
3:40 AM 53.6 °F - 51.8 °F 94% 29.83 in 10.0 mi SW 12.7 mph - N/A   Mostly Cloudy
3:53 AM 54.0 °F - 52.0 °F 93% 29.83 in 10.0 mi SSW 13.8 mph - N/A   Mostly Cloudy
4:21 AM 53.6 °F - 51.8 °F 94% 29.84 in 10.0 mi SW 12.7 mph - N/A   Mostly Cloudy
4:34 AM 53.6 °F - 51.8 °F 94% 29.84 in 10.0 mi SW 13.8 mph - N/A   Mostly Cloudy
4:43 AM 53.6 °F - 51.8 °F 94% 29.85 in 10.0 mi SW 12.7 mph - N/A   Mostly Cloudy
4:53 AM 53.1 °F - 50.0 °F 89% 29.85 in 10.0 mi SW 12.7 mph 21.9 mph N/A   Scattered Clouds
5:53 AM 53.1 °F - 48.9 °F 86% 29.84 in 10.0 mi SSW 12.7 mph - N/A   Clear
6:53 AM 51.1 °F - 46.0 °F 83% 29.87 in 10.0 mi WSW 16.1 mph 24.2 mph N/A   Clear
7:53 AM 50.0 °F - 39.9 °F 68% 29.91 in 10.0 mi WSW 18.4 mph 28.8 mph N/A   Clear
8:53 AM 50.0 °F - 36.0 °F 59% 29.94 in 10.0 mi WSW 17.3 mph 26.5 mph N/A   Clear
9:53 AM 50.0 °F - 33.1 °F 52% 29.94 in 10.0 mi WSW 19.6 mph 36.8 mph N/A   Clear
10:53 AM 50.0 °F - 30.9 °F 48% 29.96 in 10.0 mi WSW 16.1 mph 29.9 mph N/A   Clear
11:53 AM 48.9 °F - 27.0 °F 43% 29.97 in 10.0 mi WSW 17.3 mph 26.5 mph N/A   Clear
12:53 PM 50.0 °F - 28.0 °F 43% 29.96 in 10.0 mi WSW 17.3 mph 29.9 mph N/A   Clear
1:53 PM 48.9 °F - 28.0 °F 44% 29.97 in 10.0 mi WSW 11.5 mph 20.7 mph N/A   Clear
2:53 PM 48.9 °F - 26.1 °F 41% 29.97 in 10.0 mi WSW 19.6 mph 32.2 mph N/A   Clear
3:53 PM 50.0 °F - 28.0 °F 43% 29.97 in 10.0 mi WSW 21.9 mph 35.7 mph N/A   Clear
4:53 PM 50.0 °F - 27.0 °F 41% 29.98 in 10.0 mi WSW 13.8 mph 24.2 mph N/A   Clear
5:53 PM 48.0 °F - 27.0 °F 44% 30.00 in 10.0 mi West 9.2 mph - N/A   Clear
6:53 PM 46.0 °F 41.0 °F 26.1 °F 46% 30.02 in 10.0 mi West 10.4 mph 17.3 mph N/A   Clear
7:53 PM 45.0 °F 40.1 °F 26.1 °F 48% 30.05 in 10.0 mi West 9.2 mph - N/A   Clear
8:53 PM 43.0 °F 39.5 °F 26.1 °F 51% 30.06 in 10.0 mi West 5.8 mph - N/A   Clear
9:53 PM 37.9 °F 32.7 °F 26.1 °F 62% 30.09 in 10.0 mi WSW 6.9 mph - N/A   Clear
10:53 PM 37.9 °F 34.4 °F 26.1 °F 62% 30.09 in 10.0 mi WSW 4.6 mph - N/A   Clear
11:53 PM 36.0 °F 29.6 °F 26.1 °F 67% 30.11 in 10.0 mi WSW 8.1 mph - N/A   Clear